DW8462 Weather Reports


time (UTC)temp
C
wind
direction
speed
KPH
gust
KPH
rain 1hr
cm
rain 24hr
cm
rain mn
cm
humidity
%
barometer
mb
20260509150023 17 360 0.0 0.0 0.00 0.00 0.00 81 1005.8
20260509144519 17 250 0.0 0.0 0.00 0.00 0.00 84 1005.6
20260509143015 16 246 0.0 0.0 0.00 0.00 0.00 88 1005.5
20260509141519 15 221 0.0 0.0 0.00 0.00 0.00 92 1005.5
20260509140005 14 207 0.0 0.0 0.00 0.00 0.00 95 1005.8
20260509134501 13 360 0.0 0.0 0.00 0.00 0.00 96 1005.6
20260509133106 12 189 0.0 0.0 0.00 0.00 0.00 97 1005.9
20260509131559 12 250 0.0 0.0 0.00 0.00 0.00 97 1006.1
20260509130056 12 249 0.0 0.0 0.00 0.00 0.00 97 1006.1
20260509124556 11 180 0.0 0.0 0.00 0.00 0.00 97 1005.7
20260509123056 11 181 0.0 0.0 0.00 0.00 0.00 97 1005.7
20260509121556 11 216 0.0 0.0 0.00 0.00 0.00 97 1005.6
20260509120044 11 360 0.0 0.0 0.00 0.00 0.00 97 1005.5
20260509114556 11 188 0.0 0.0 0.00 0.00 0.00 97 1005.6
20260509113041 11 180 0.0 0.0 0.00 0.00 0.00 97 1005.6
20260509111540 11 184 0.0 0.0 0.00 0.00 0.00 97 1005.4
20260509110014 11 360 0.0 0.0 0.00 0.00 0.00 97 1005.3
20260509104510 11 244 0.0 0.0 0.00 0.00 0.00 97 1005.5
20260509103006 11 230 0.0 0.0 0.00 0.00 0.00 97 1005.5
20260509101506 10 220 0.0 0.0 0.00 0.00 0.00 97 1005.5
20260509100005 8 360 0.0 0.0 0.00 0.00 0.00 97 1005.7
20260509094503 7 360 0.0 0.0 0.00 0.13 0.00 96 1005.8
20260509093032 7 360 0.0 0.0 0.00 0.13 0.00 96 1005.7
20260509091532 7 360 0.0 0.0 0.00 0.13 0.00 96 1005.7
20260509090051 7 360 0.0 0.0 0.00 0.13 0.00 96 1005.7
20260509084529 7 360 0.0 0.0 0.00 0.13 0.00 96 1005.8
20260509083043 7 360 0.0 0.0 0.00 0.13 0.00 95 1005.9
20260509081529 7 360 0.0 0.0 0.00 0.13 0.00 95 1006.0
20260509080024 7 360 0.0 0.0 0.00 0.13 0.00 95 1006.0
20260509074531 8 360 0.0 0.0 0.00 0.13 0.00 95 1005.9
20260509073021 8 360 0.0 0.0 0.00 0.13 0.00 96 1005.8
20260509071522 8 360 0.0 0.0 0.00 0.13 0.00 95 1005.9
20260509070050 8 360 0.0 0.0 0.00 0.13 0.00 94 1006.0
20260509064545 9 360 0.0 0.0 0.00 0.13 0.00 95 1006.0
20260509063046 8 360 0.0 0.0 0.00 0.13 0.00 94 1006.3
20260509061538 9 360 0.0 0.0 0.00 0.13 0.00 94 1006.4
20260509060036 9 360 0.0 0.0 0.00 0.13 0.00 94 1006.5
20260509054535 10 360 0.0 0.0 0.00 0.13 0.00 94 1006.8
20260509053039 10 360 0.0 0.0 0.00 0.13 0.00 93 1006.6
20260509051529 10 360 0.0 0.0 0.00 0.13 0.00 93 1006.5
20260509050042 11 360 0.0 0.0 0.00 0.13 0.00 93 1006.7
20260509044522 11 360 0.0 0.0 0.00 0.13 0.13 93 1006.8
20260509043032 11 360 0.0 0.0 0.00 0.13 0.13 93 1007.0
20260509041519 11 360 0.0 0.0 0.00 0.13 0.13 92 1007.1
20260509040018 11 360 0.0 0.0 0.00 0.13 0.13 92 1007.2
20260509034518 11 360 0.0 0.0 0.00 0.13 0.13 92 1007.2
20260509033020 11 193 0.0 0.0 0.00 0.13 0.13 91 1007.3
20260509031515 12 360 0.0 0.0 0.00 0.13 0.13 91 1007.4
20260509030020 12 360 0.0 0.0 0.00 0.13 0.13 90 1007.5
20260509024514 12 360 0.0 0.0 0.00 0.13 0.13 90 1007.5
20260509023012 12 177 0.0 0.0 0.00 0.13 0.13 89 1007.5
20260509021512 13 180 0.0 0.0 0.00 0.13 0.13 87 1007.1
20260509020011 13 179 0.0 0.0 0.00 0.13 0.13 86 1007.1
20260509014511 13 178 0.0 0.0 0.00 0.13 0.13 85 1007.0
20260509013046 13 185 0.0 0.0 0.00 0.13 0.13 83 1007.0
20260509011540 14 176 0.0 0.0 0.00 0.13 0.13 81 1007.1
20260509010037 15 179 0.0 0.0 0.00 0.13 0.13 80 1007.0
20260509004548 15 177 0.0 0.0 0.00 0.13 0.13 78 1006.9
20260509003035 15 173 0.0 0.0 0.00 0.13 0.13 75 1006.9
20260509001535 16 184 0.0 0.0 0.00 0.13 0.13 72 1006.9
20260509000006 16 360 0.0 0.0 0.00 0.13 0.13 73 1006.9
20260508234504 16 242 0.0 0.0 0.00 0.13 0.13 74 1007.0
20260508233103 16 202 0.0 0.0 0.00 0.13 0.13 76 1007.1
20260508231531 16 179 0.0 0.0 0.00 0.13 0.13 73 1007.2
20260508230032 17 173 0.0 0.0 0.00 0.13 0.13 69 1007.3
20260508230030 17 163 0.0 0.0 0.00 0.13 0.13 69 1007.3
20260508224504 17 178 0.0 0.0 0.00 0.13 0.13 68 1007.2
20260508223102 17 227 0.0 0.0 0.00 0.13 0.13 66 1007.2
20260508221609 18 250 0.0 0.0 0.00 0.13 0.13 66 1007.2
20260508220055 18 248 0.0 0.0 0.00 0.13 0.13 66 1007.2
20260508214553 18 360 0.0 0.0 0.00 0.13 0.13 67 1007.3
20260508213052 18 360 0.0 0.0 0.00 0.13 0.13 68 1007.5
20260508211550 18 299 0.0 0.0 0.00 0.13 0.13 70 1007.5
20260508210046 17 256 0.0 0.0 0.00 0.13 0.13 74 1007.5
20260508204544 17 249 0.0 0.0 0.00 0.13 0.13 73 1007.7
20260508203043 17 255 0.0 0.0 0.00 0.13 0.13 73 1007.8
20260508201541 16 261 0.0 0.0 0.00 0.13 0.13 75 1008.0
20260508200045 16 257 0.0 0.0 0.00 0.13 0.13 75 1008.4
20260508194534 16 254 0.0 0.0 0.00 0.13 0.13 74 1008.6
20260508193046 16 248 0.0 0.0 0.00 0.13 0.13 73 1008.6
20260508191505 16 244 0.0 0.0 0.00 0.13 0.13 73 1008.7
20260508190002 16 240 0.0 0.0 0.00 0.13 0.13 73 1008.7
20260508184600 17 249 0.0 0.0 0.00 0.13 0.13 70 1008.8
20260508183137 17 259 0.0 0.0 0.00 0.13 0.13 74 1009.0
20260508181612 16 244 0.0 0.0 0.00 0.13 0.13 72 1009.3
20260508180055 17 173 0.0 0.0 0.00 0.13 0.13 72 1009.3
20260508174526 16 360 0.0 0.0 0.00 0.13 0.13 71 1009.3
20260508173026 16 243 0.0 0.0 0.00 0.13 0.13 71 1009.6
20260508171531 16 360 0.0 0.0 0.00 0.13 0.13 71 1009.6
20260508170018 17 291 0.0 0.0 0.00 0.13 0.13 70 1009.8
20260508164521 17 360 0.0 0.0 0.00 0.13 0.13 69 1010.1
20260508163014 17 252 0.0 0.0 0.00 0.13 0.13 71 1010.3
20260508161514 17 360 0.0 0.0 0.00 0.13 0.13 71 1010.3
20260508160007 17 245 0.0 0.0 0.00 0.13 0.13 74 1010.5
20260508154504 16 228 0.0 0.0 0.00 0.13 0.13 74 1010.5
20260508153001 16 180 0.0 0.0 0.00 0.13 0.13 75 1010.8
20260508151556 15 360 0.0 0.0 0.00 0.13 0.13 75 1010.8